(515061) = 2010 LM71

Discovered at WISE on 2010-06-10 by WISE.

Orbit

Orbit type: Main Belt

Note: WebGL enabled browser required.

epoch2023-02-25.0
epoch JD2460000.5
perihelion date2021-07-16.71510
perihelion JD2459412.21510
argument of perihelion (°)36.18764
ascending node (°)354.75351
inclination (°)15.80331
eccentricity0.1486140
perihelion distance (AU)2.5541574
Tisserand w.r.t. Jupiter3.2
ΔV w.r.t. Earth (km/sec)11.1
semimajor axis (AU)2.9999991
mean anomaly (°)111.58604
mean daily motion (°/day)0.18968030
aphelion distance (AU)3.446
period (years)5.2
P-vector [x]0.85565515
P-vector [y]0.38737971
P-vector [z]0.34320726
Q-vector [x]-0.51694693
Q-vector [y]0.67161801
Q-vector [z]0.53074958
absolute magnitude16.65
phase slope0.15
uncertainty0
referenceMPEC 2023-F215
observations used135
oppositions8
arc length (days)6386
first opposition used2005
last opposition used2023
residual rms (arc-secs)0.79
perturbers coarse indicatorM-v
perturbers precise indicator003Ek
first observation date used2005-10-01.0
last observation date used2023-03-27.0
computer nameMPCLINUX
Minimum Orbit Intersection Distances (in AU)
for orbit epoch: 2460000.5, reference: E2023-FI9
Mercury2.22839
Venus1.84822
Earth1.57214
Mars1.16798
Jupiter2.08557
Saturn6.136
Uranus15.0966
Neptune27.2821

Observations

139 total observations over interval: 2005 10 01.30777 – 2023 03 27.284372
These data are available for download (format description).

